NOAA 16 DEB, 41206

Orbit data source: Space-Track

NOAA 16 DEB, 41206 is space debris in SSO originally from a launch on Thu, 21 Sep 2000 UTC launched from the Air Force Western Test Range (AFWTR). Debris objects in space refer to the collection of defunct objects orbiting the Earth. Examples of debris include non-operational satellites, rocket bodies, and fragments generated from explosions, collisions, or faulty payload assembly.

Loading next visibility...
NOAA 16 DEB details
Identifier
41206, 2000-055DK
Orbit
SSO
Last TLE update2 days ago
Origin
Flag of USNOAA (US)
ManufacturerUnknown
MissionSpacecraft
Bus & MotorUnknown
MassUnknown
Launch date (UTC)
2000-09-21 (24 years ago)
Launch vehicleUnknown
Launch site
Air Force Western Test Range (AFWTR)
Object type
Payload
Rocket body
Debris
Shape & HBRUnknown
Radar Cross SectionSmall (<0.1 m²)

Expand to show TLE details & history

TLE from 2 days ago
0 NOAA 16 DEB
1 41206U 00055DK  24359.89976717  .00007534  00000-0  34492-2 0  9993
2 41206  98.6468  40.1920 0012287 280.2639  79.7153 14.21609855465820
Epoch: 2024-12-24T21:35Z
Definitive object data (Epoch: 2024-12-24T21:35:39.883Z)
Latitude-0.00002°
Longitude-17.62542°
Altitude821.263 km
Speed7.443 km/s
True Right ascension02h 40m 46s
True Declination0° 00' 00"
Sunlit
Object was in full shadow at TLE epoch
Visualization TLE readout
Latitude-14.40104°
Longitude-13.67855°
Altitude822.749 km
Speed7.442 km/s
Apparent Right ascension03h 01m 01s
Apparent Declination-26° 14' 20"
Sunlit
Object is in full shadow
Visualization observer readout
Local Sidereal Time15:07:23
Azimuth6.022° NNE
Elevation-76.259°
Doppler factor1
Orbital elements
Apogee altitude825.908 km
Perigee altitude808.226 km
Semi-major axis7,195.204 km
Eccentricity0.0012287
Inclination98.6468°
RAAN40.192°
Arg. of periapsis280.2639°
True anomaly79.85387°
Mean anomaly79.7153°
Eccentric anomaly79.78458°
Mean motion3.55614 °/min
BSTAR0.0034492
Orbital period101.23 mins
Loading maneuver chart data...
Loading historical data...
Loading historical data...
Loading historical data...
Loading historical data...
Loading historical data...
Loading historical data...
Loading historical data...

NOAA 16 DEB Visibility forecast

Observer location: undefined°, undefined

Span
Click to sort rows by Start time (UTC) header in descending order
Start Az.
Max El. time (UTC)
Max El. Az.
Max El.
End time (UTC)
End Az.
9 mins2024-12-26 16:23:20.199Z359.847° N2024-12-26 16:28:20.199Z285.205° WNW35.27°2024-12-26 16:32:20.199Z222.466° SW
8 mins2024-12-27 02:06:20.199Z122.275° SE2024-12-27 02:09:20.199Z75.712° E29.311°2024-12-27 02:14:20.199Z5.322° NNE
7 mins2024-12-27 03:46:20.199Z213.115° SW2024-12-27 03:49:20.199Z256.436° W25.894°2024-12-27 03:53:20.199Z317.082° NNW
4 mins2024-12-27 14:25:20.199Z71.921° E2024-12-27 14:27:20.199Z96.171° ESE13.493°2024-12-27 14:29:20.199Z118.845° SE
|